sat.trackr.live / text

‹ back to catalog

STARLINK-34412

NORAD 66132 · 2025-237U

PAYLOAD ACTIVE UNKNOWN

§ Identity

Operator
Country
US
Launch date
2025-10-22
Launch site
AFWTR
Launch vehicle
Mass (kg)
RCS (m²)

Purposes: comms

External: N2YO · Heavens-Above · Gunter

§ Orbital elements

Epoch: 2026-05-25T02:55:05.433888Z

Period
94.11 min
Inclination
53.1600°
Eccentricity
0.0001247
Mean motion
15.30199989 rev/d
Perigee alt
474.4 km
Apogee alt
476.1 km
Semi-major
6,853.4 km
B*
5.0054e-4
RAAN
44.5270°
Arg perigee
59.8026°
Mean anomaly
300.3098°
Rev number
3,422

§ Raw data

STARLINK-344121 66132U 25237U   26145.12159067  .00014494  00000+0  50054-3 0  99942 66132  53.1600  44.5270 0001247  59.8026 300.3098 15.30199989 34229

JSON: /api/v1/satellites/66132 · /tle

For live sub-satellite position, see the globe view (requires WebGL).

§ Visibility from observer

Set your observer location to see the next 7 days of passes ≥ 10°. The values pass through the URL so the page stays shareable.

No JS? Fill the form by hand. The geolocation button needs JavaScript.